Weather History for Reno, NV

Change the Weather History Date:

Sunday, December 2, 2012

  Actual Average Record
Temperature  
Mean Temperature 46 °F 37 °F  
Max Temperature 59 °F 48 °F 68 °F (1939)
Min Temperature 32 °F 27 °F 5 °F (1922)
Degree Days  
Heating Degree Days 19 28  
Month to date heating degree days 30 55  
Since 1 July heating degree days 829 1158  
Cooling Degree Days 0 0  
Month to date cooling degree days 0 0  
Year to date cooling degree days 1272 839  
Moisture  
Dew Point 36 °F    
Average Humidity 72    
Maximum Humidity 100    
Minimum Humidity 43    
Precipitation  
Precipitation 0.72 in 0.03 in 1.30 in (1919)
Month to date precipitation 0.72 0.06  
Year to date precipitation 4.38 6.43  
Snow  
Snow 0.00 in 0.10 in 10.60 in (1919)
Month to date snowfall 0.0 0.2  
Since 1 July snowfall 0.8 3.7  
Snow Depth 0.00 in    
Sea Level Pressure  
Sea Level Pressure 29.78 in    
Wind  
Wind Speed 12 mph (West)    
Max Wind Speed 39 mph    
Max Gust Speed 52 mph    
Visibility 8 miles    
Events Rain    
T = Trace of Precipitation, MM = Missing Value Source: NWS Daily Summary

Daily Weather History Graph

Daily Weather History Graph

Search for Another Location

Airport:

Trip Planner

Search our weather history database for the weather conditions in past years. The results will help you decide how hot, cold, wet, or windy it might be!

Date:

Astronomy

Dec. 02, 2012 Rise Set
Actual Time 7:01 AM PST 4:35 PM PST
Civil Twilight 6:32 AM PST 5:05 PM PST
Nautical Twilight 5:58 AM PST 5:38 PM PST
Astronomical Twilight 5:26 AM PST 6:11 PM PST
Moon 8:27 PM PST (12/2) 9:54 AM PST (12/2)
Length of Visible Light 10h 33m
Length of Day
9h 33m
Waning Gibbous, 85% of the Moon is Illuminated
Dec 2
Waning Gibbous
Dec 6
Last Quarter
Dec 13
New
Dec 19
First Quarter
Dec 28
Full

Hourly Weather History & Observations

Time (PST) Temp. Windchill Dew Point Humidity Pressure Visibility Wind Dir Wind Speed Gust Speed Precip Events Conditions
12:55 AM 55.0 °F - 37.9 °F 53% 29.65 in 10.0 mi North 9.2 mph 21.9 mph N/A   Mostly Cloudy
1:55 AM 57.0 °F - 35.1 °F 44% 29.59 in 10.0 mi West 12.7 mph 27.6 mph N/A   Mostly Cloudy
2:55 AM 57.9 °F - 35.1 °F 42% 29.57 in 10.0 mi South 11.5 mph 17.3 mph N/A   Mostly Cloudy
3:55 AM 55.0 °F - 37.9 °F 53% 29.54 in 10.0 mi SW 23.0 mph 43.7 mph 0.00 in Rain Light Rain
4:55 AM 52.0 °F - 41.0 °F 66% 29.53 in 10.0 mi SSW 32.2 mph 43.7 mph 0.00 in Rain Light Rain
5:55 AM 48.9 °F - 42.1 °F 77% 29.56 in 10.0 mi SSW 19.6 mph 34.5 mph 0.01 in Rain Light Rain
6:55 AM 50.0 °F - 42.1 °F 74% 29.54 in 10.0 mi SSW 25.3 mph 42.6 mph 0.02 in Rain Light Rain
7:55 AM 48.0 °F - 46.0 °F 93% 29.57 in 4.0 mi South 21.9 mph 31.1 mph 0.08 in Rain Rain
8:55 AM 48.0 °F - 45.0 °F 89% 29.60 in 4.0 mi SSW 24.2 mph 33.4 mph 0.06 in Rain Rain
9:55 AM 46.9 °F - 44.1 °F 90% 29.70 in 3.0 mi WNW 15.0 mph 26.5 mph 0.15 in Rain Rain
10:00 AM 44.6 °F 35.7 °F 42.8 °F 93% 29.77 in 2.5 mi WNW 24.2 mph 33.4 mph 0.02 in Rain Heavy Rain
10:55 AM 42.1 °F 39.2 °F 39.9 °F 92% 29.76 in 2.5 mi NW 4.6 mph - 0.21 in Rain Rain
11:55 AM 41.0 °F 39.0 °F 41.0 °F 100% 29.75 in 2.5 mi NNE 3.5 mph - 0.17 in Rain Rain
12:12 PM 41.0 °F 38.0 °F 41.0 °F 100% 29.80 in 4.0 mi North 4.6 mph - 0.02 in Rain Light Rain
12:45 PM 42.8 °F - 42.8 °F 100% 29.81 in 7.0 mi Calm Calm - 0.02 in Rain Light Rain
12:55 PM 43.0 °F - 43.0 °F 100% 29.75 in 7.0 mi Calm Calm - 0.02 in Rain Light Rain
1:55 PM 48.9 °F - 39.0 °F 69% 29.77 in 10.0 mi Variable 6.9 mph - 0.00 in   Scattered Clouds
2:55 PM 48.9 °F - 33.1 °F 54% 29.81 in 10.0 mi WNW 12.7 mph 21.9 mph N/A   Scattered Clouds
3:55 PM 48.0 °F - 30.0 °F 50% 29.83 in 10.0 mi West 26.5 mph 33.4 mph N/A   Scattered Clouds
4:55 PM 46.0 °F 42.5 °F 32.0 °F 58% 29.91 in 10.0 mi NW 6.9 mph - N/A   Scattered Clouds
5:55 PM 44.1 °F 41.5 °F 28.9 °F 55% 29.92 in 10.0 mi Variable 4.6 mph 19.6 mph N/A   Partly Cloudy
6:55 PM 44.1 °F 40.8 °F 27.0 °F 51% 29.95 in 10.0 mi Variable 5.8 mph 17.3 mph N/A   Clear
7:55 PM 41.0 °F 35.2 °F 28.0 °F 60% 30.01 in 10.0 mi NE 9.2 mph - N/A   Clear
8:55 PM 37.9 °F - 28.9 °F 70% 30.03 in 10.0 mi Calm Calm - N/A   Clear
9:55 PM 36.0 °F 32.1 °F 28.9 °F 76% 30.06 in 10.0 mi North 4.6 mph - N/A   Scattered Clouds
10:55 PM 35.1 °F 31.0 °F 28.9 °F 78% 30.10 in 10.0 mi NNW 4.6 mph - N/A   Mostly Cloudy
11:55 PM 32.0 °F 27.5 °F 28.0 °F 85% 30.12 in 10.0 mi SSW 4.6 mph - N/A   Mostly Cloudy